timestamp,wind_dir_avg,wind_spd_avg,wind_spd_max_dir,wind_spd_gust,battery_voltage,lat,long
2023-01-23 00:04:01+00:00,304.0,6.89,304.0,7.84,12.41,47.59359,-54.27349
2023-01-23 00:14:01+00:00,293.0,7.85,293.0,9.21,12.41,47.59359,-54.27349
2023-01-23 00:24:01+00:00,290.0,7.62,285.0,8.23,12.41,47.59359,-54.27349
2023-01-23 00:34:01+00:00,284.0,7.18,280.0,8.08,12.41,47.59359,-54.27349
2023-01-23 00:44:01+00:00,283.0,8.42,282.0,11.12,12.41,47.59359,-54.27349
2023-01-23 00:54:01+00:00,289.0,7.88,290.0,8.65,12.41,47.59359,-54.27349
2023-01-23 01:04:01+00:00,287.0,7.37,290.0,8.62,12.41,47.59359,-54.27349
2023-01-23 01:14:00+00:00,288.0,7.86,294.0,9.06,12.33,47.59359,-54.27349
2023-01-23 01:24:00+00:00,282.0,8.46,282.0,9.45,12.33,47.59359,-54.27349
2023-01-23 01:34:00+00:00,288.0,8.55,291.0,9.71,12.33,47.59359,-54.27349
2023-01-23 01:44:00+00:00,291.0,7.98,294.0,9.04,12.33,47.59359,-54.27349
2023-01-23 01:54:00+00:00,286.0,8.18,290.0,8.92,12.33,47.59359,-54.27349
2023-01-23 02:04:00+00:00,292.0,8.09,294.0,9.2,12.33,47.59359,-54.27349
2023-01-23 02:14:00+00:00,289.0,7.98,293.0,8.77,12.33,47.59359,-54.27349
2023-01-23 02:24:00+00:00,279.0,7.51,276.0,8.67,12.33,47.59359,-54.27349
2023-01-23 02:34:00+00:00,279.0,8.38,276.0,9.38,12.33,47.59359,-54.27349
2023-01-23 02:44:00+00:00,278.0,7.92,277.0,8.5,12.33,47.59359,-54.27349
2023-01-23 02:54:00+00:00,277.0,7.79,281.0,8.51,12.33,47.59359,-54.27349
2023-01-23 03:04:00+00:00,278.0,7.45,273.0,8.18,12.33,47.59359,-54.27349
2023-01-23 03:14:01+00:00,280.0,6.9,280.0,8.13,12.33,47.59359,-54.27349
2023-01-23 03:24:01+00:00,273.0,5.71,272.0,7.15,12.33,47.59359,-54.27349
2023-01-23 03:34:01+00:00,267.0,6.01,267.0,6.86,12.33,47.59359,-54.27349
2023-01-23 03:44:01+00:00,276.0,6.59,278.0,7.78,12.33,47.59359,-54.27349
2023-01-23 03:54:01+00:00,263.0,5.42,268.0,6.98,12.33,47.59359,-54.27349
2023-01-23 04:04:01+00:00,274.0,4.85,279.0,5.31,12.33,47.59359,-54.27349
2023-01-23 04:14:00+00:00,267.0,6.23,272.0,6.96,12.33,47.59359,-54.27349
2023-01-23 04:24:00+00:00,244.0,4.94,244.0,5.35,12.33,47.59359,-54.27349
2023-01-23 04:34:00+00:00,261.0,5.4,259.0,6.13,12.33,47.59359,-54.27349
2023-01-23 04:44:00+00:00,255.0,5.21,256.0,5.6,12.33,47.59359,-54.27349
2023-01-23 04:54:00+00:00,251.0,4.79,251.0,5.82,12.33,47.59359,-54.27349
2023-01-23 05:04:00+00:00,255.0,3.88,254.0,4.49,12.33,47.59359,-54.27349
2023-01-23 05:14:01+00:00,249.0,4.4,250.0,5.04,12.25,47.59359,-54.27349
2023-01-23 05:24:01+00:00,251.0,4.74,256.0,6.3,12.25,47.59359,-54.27349
2023-01-23 05:34:01+00:00,266.0,3.48,272.0,4.45,12.25,47.59359,-54.27349
2023-01-23 05:44:01+00:00,258.0,2.24,259.0,2.7,12.25,47.59359,-54.27349
2023-01-23 05:54:01+00:00,249.0,3.37,250.0,3.74,12.25,47.59359,-54.27349
2023-01-23 06:04:01+00:00,257.0,3.74,265.0,4.11,12.25,47.59359,-54.27349
2023-01-23 06:14:01+00:00,242.0,3.56,238.0,4.34,12.25,47.59359,-54.27349
2023-01-23 06:24:01+00:00,233.0,4.39,233.0,5.2,12.25,47.59359,-54.27349
2023-01-23 06:34:01+00:00,236.0,4.1,235.0,4.46,12.25,47.59359,-54.27349
2023-01-23 06:44:01+00:00,251.0,4.85,243.0,5.61,12.25,47.59359,-54.27349
2023-01-23 06:54:01+00:00,247.0,5.43,246.0,5.95,12.25,47.59359,-54.27349
2023-01-23 07:04:01+00:00,244.0,4.16,251.0,4.58,12.25,47.59359,-54.27349
2023-01-23 07:14:01+00:00,239.0,3.3,239.0,3.69,12.25,47.59359,-54.27349
2023-01-23 07:24:01+00:00,245.0,4.05,236.0,4.98,12.25,47.59359,-54.27349
2023-01-23 07:34:01+00:00,256.0,4.98,258.0,5.76,12.25,47.59359,-54.27349
2023-01-23 07:44:01+00:00,265.0,6.73,271.0,7.84,12.25,47.59359,-54.27349
2023-01-23 07:54:01+00:00,266.0,8.04,272.0,9.58,12.25,47.59359,-54.27349
2023-01-23 08:04:01+00:00,272.0,10.14,272.0,11.21,12.25,47.59359,-54.27349
2023-01-23 08:14:00+00:00,262.0,8.26,264.0,10.24,12.25,47.59359,-54.27349
2023-01-23 08:24:00+00:00,242.0,7.3,247.0,8.45,12.25,47.59359,-54.27349
2023-01-23 08:34:00+00:00,240.0,6.99,238.0,8.06,12.25,47.59359,-54.27349
2023-01-23 08:44:00+00:00,233.0,7.45,241.0,9.24,12.25,47.59359,-54.27349
2023-01-23 08:54:00+00:00,240.0,7.55,244.0,9.44,12.25,47.59359,-54.27349
2023-01-23 09:04:00+00:00,238.0,6.88,240.0,7.92,12.25,47.59359,-54.27349
2023-01-23 09:14:01+00:00,246.0,8.54,253.0,9.93,12.25,47.59359,-54.27349
2023-01-23 09:24:01+00:00,250.0,8.07,247.0,10.57,12.25,47.59359,-54.27349
2023-01-23 09:34:01+00:00,240.0,7.84,242.0,8.54,12.25,47.59359,-54.27349
2023-01-23 09:44:01+00:00,233.0,8.32,234.0,9.47,12.25,47.59359,-54.27349
2023-01-23 09:54:01+00:00,226.0,8.3,228.0,9.63,12.25,47.59359,-54.27349
2023-01-23 10:04:01+00:00,223.0,7.5,232.0,9.21,12.25,47.59359,-54.27349
2023-01-23 10:14:00+00:00,219.0,7.22,233.0,8.55,12.25,47.59359,-54.27349
2023-01-23 10:24:00+00:00,213.0,7.1,217.0,8.21,12.25,47.59359,-54.27349
2023-01-23 10:34:00+00:00,215.0,7.17,220.0,8.94,12.25,47.59359,-54.27349
2023-01-23 10:44:00+00:00,230.0,8.61,237.0,10.24,12.25,47.59359,-54.27349
2023-01-23 10:54:00+00:00,215.0,8.89,223.0,11.54,12.25,47.59359,-54.27349
2023-01-23 11:04:00+00:00,223.0,9.6,225.0,11.26,12.25,47.59359,-54.27349
2023-01-23 11:14:00+00:00,223.0,11.11,213.0,12.49,12.25,47.59359,-54.27349
2023-01-23 11:24:00+00:00,214.0,10.27,225.0,12.55,12.25,47.59359,-54.27349
2023-01-23 11:34:00+00:00,228.0,10.55,227.0,12.16,12.25,47.59359,-54.27349
2023-01-23 11:44:00+00:00,229.0,10.02,223.0,11.6,12.25,47.59359,-54.27349
2023-01-23 11:54:00+00:00,235.0,9.59,229.0,11.58,12.25,47.59359,-54.27349
2023-01-23 12:04:00+00:00,232.0,10.7,230.0,12.44,12.25,47.59359,-54.27349
2023-01-23 13:14:00+00:00,228.0,10.45,231.0,11.96,12.41,47.59359,-54.27349
2023-01-23 13:24:00+00:00,221.0,11.85,220.0,13.52,12.41,47.59359,-54.27349
2023-01-23 13:34:00+00:00,223.0,11.21,225.0,13.12,12.41,47.59359,-54.27349
2023-01-23 13:44:00+00:00,225.0,11.19,227.0,12.69,12.41,47.59359,-54.27349
2023-01-23 13:54:00+00:00,224.0,11.2,227.0,13.07,12.41,47.59359,-54.27349
2023-01-23 14:04:00+00:00,224.0,9.19,228.0,11.64,12.41,47.59359,-54.27349
2023-01-23 14:14:01+00:00,225.0,10.93,224.0,12.12,12.41,47.59359,-54.27349
2023-01-23 14:24:01+00:00,225.0,10.58,228.0,12.24,12.41,47.59359,-54.27349
2023-01-23 14:34:01+00:00,225.0,10.38,218.0,12.06,12.41,47.59359,-54.27349
2023-01-23 14:44:01+00:00,223.0,11.03,221.0,12.51,12.41,47.59359,-54.27349
2023-01-23 14:54:01+00:00,224.0,10.35,221.0,11.63,12.41,47.59359,-54.27349
2023-01-23 15:04:01+00:00,226.0,10.82,228.0,12.68,12.41,47.59359,-54.27349
2023-01-23 15:14:00+00:00,228.0,10.2,230.0,12.63,12.41,47.59359,-54.27349
2023-01-23 15:24:00+00:00,223.0,11.02,223.0,13.69,12.41,47.59359,-54.27349
2023-01-23 15:34:00+00:00,225.0,10.6,223.0,12.14,12.41,47.59359,-54.27349
2023-01-23 15:44:00+00:00,224.0,9.89,229.0,11.11,12.41,47.59359,-54.27349
2023-01-23 15:54:00+00:00,224.0,11.1,227.0,13.59,12.41,47.59359,-54.27349
2023-01-23 16:04:00+00:00,221.0,12.58,223.0,14.48,12.41,47.59359,-54.27349
2023-01-23 16:14:01+00:00,220.0,11.69,216.0,14.07,12.57,47.59359,-54.27349
2023-01-23 16:24:01+00:00,224.0,12.77,214.0,15.16,12.57,47.59359,-54.27349
2023-01-23 16:34:01+00:00,222.0,12.23,222.0,13.82,12.57,47.59359,-54.27349
2023-01-23 16:44:01+00:00,221.0,11.2,223.0,12.63,12.57,47.59359,-54.27349
2023-01-23 16:54:01+00:00,220.0,11.05,216.0,13.0,12.57,47.59359,-54.27349
2023-01-23 17:04:01+00:00,220.0,11.76,221.0,13.39,12.57,47.59359,-54.27349
2023-01-23 17:14:01+00:00,219.0,12.12,222.0,13.72,12.73,47.59359,-54.27349
2023-01-23 17:24:01+00:00,217.0,12.47,214.0,14.17,12.73,47.59359,-54.27349
2023-01-23 17:34:01+00:00,218.0,12.35,213.0,14.29,12.73,47.59359,-54.27349
2023-01-23 17:44:01+00:00,216.0,12.23,209.0,13.76,12.73,47.59359,-54.27349
2023-01-23 17:54:01+00:00,219.0,11.02,213.0,14.14,12.73,47.59359,-54.27349
2023-01-23 18:04:01+00:00,217.0,10.75,218.0,12.9,12.73,47.59359,-54.27349
2023-01-23 18:14:01+00:00,215.0,11.49,218.0,13.44,12.65,47.59359,-54.27349
2023-01-23 18:24:01+00:00,216.0,12.32,217.0,13.89,12.65,47.59359,-54.27349
2023-01-23 18:34:01+00:00,212.0,11.68,219.0,13.74,12.65,47.59359,-54.27349
2023-01-23 18:44:01+00:00,215.0,10.07,221.0,12.76,12.65,47.59359,-54.27349
2023-01-23 18:54:01+00:00,218.0,10.35,219.0,12.22,12.65,47.59359,-54.27349
2023-01-23 19:04:01+00:00,217.0,9.0,224.0,10.5,12.65,47.59359,-54.27349
2023-01-23 19:14:00+00:00,217.0,10.18,219.0,11.66,12.41,47.59359,-54.27349
2023-01-23 19:24:00+00:00,217.0,10.28,212.0,11.94,12.41,47.59359,-54.27349
2023-01-23 19:34:00+00:00,200.0,9.67,192.0,11.23,12.41,47.59359,-54.27349
2023-01-23 19:44:00+00:00,215.0,9.53,225.0,11.55,12.41,47.59359,-54.27349
2023-01-23 19:54:00+00:00,213.0,8.29,222.0,10.06,12.41,47.59359,-54.27349
2023-01-23 20:04:00+00:00,209.0,9.78,217.0,12.12,12.41,47.59359,-54.27349
2023-01-23 20:14:01+00:00,205.0,10.07,215.0,12.38,12.33,47.59359,-54.27349
2023-01-23 20:24:01+00:00,210.0,9.37,215.0,10.94,12.33,47.59359,-54.27349
2023-01-23 20:34:01+00:00,206.0,9.14,218.0,10.93,12.33,47.59359,-54.27349
2023-01-23 20:44:01+00:00,201.0,11.05,195.0,12.95,12.33,47.59359,-54.27349
2023-01-23 20:54:01+00:00,201.0,12.25,208.0,15.24,12.33,47.59359,-54.27349
2023-01-23 21:04:01+00:00,198.0,11.36,204.0,14.18,12.33,47.59359,-54.27349
2023-01-23 21:14:01+00:00,188.0,11.93,192.0,13.74,12.25,47.59359,-54.27349
2023-01-23 21:24:01+00:00,188.0,12.14,187.0,13.89,12.25,47.59359,-54.27349
2023-01-23 21:34:01+00:00,193.0,13.44,205.0,14.96,12.25,47.59359,-54.27349
2023-01-23 21:44:01+00:00,200.0,13.96,203.0,16.32,12.25,47.59359,-54.27349
2023-01-23 21:54:01+00:00,192.0,11.24,205.0,13.65,12.25,47.59359,-54.27349
2023-01-23 22:04:01+00:00,189.0,12.76,192.0,14.32,12.25,47.59359,-54.27349
2023-01-23 22:14:01+00:00,202.0,12.15,199.0,14.82,12.25,47.59359,-54.27349
2023-01-23 22:24:01+00:00,200.0,12.71,207.0,15.24,12.25,47.59359,-54.27349
2023-01-23 22:34:01+00:00,182.0,13.96,188.0,16.13,12.25,47.59359,-54.27349
2023-01-23 22:44:01+00:00,183.0,12.8,185.0,14.09,12.25,47.59359,-54.27349
2023-01-23 22:54:01+00:00,178.0,14.62,176.0,17.33,12.25,47.59359,-54.27349
2023-01-23 23:04:01+00:00,183.0,17.4,188.0,21.42,12.25,47.59359,-54.27349
2023-01-23 23:14:01+00:00,186.0,15.36,189.0,18.26,12.25,47.59359,-54.27349
2023-01-23 23:24:01+00:00,188.0,13.27,191.0,19.55,12.25,47.59359,-54.27349
2023-01-23 23:34:01+00:00,176.0,11.2,173.0,13.08,12.25,47.59359,-54.27349
2023-01-23 23:44:01+00:00,180.0,10.07,185.0,11.52,12.25,47.59359,-54.27349
2023-01-23 23:54:01+00:00,182.0,12.64,177.0,15.39,12.25,47.59359,-54.27349
